Location: Cedar Falls
(42.5280°N, 92.4450°W)
Time: 23:36:38
(UTC-06:00)

NOSS 3-1 (C) - Visible Passes

Search period start: 31 January 2015 00:00
Search period end: 10 February 2015 00:00
Orbit: 885 x 1324 km, 63.4° (Epoch: 23 January)

Date Brightness Start Highest point End Pass type
(mag) Time Alt. Az. Time Alt. Az. Time Alt. Az.
31 Jan 6.2 03:04:15 12° NNE 03:04:15 12° NNE 03:05:39 10° NNE visible
31 Jan 5.7 04:51:38 12° NNW 04:56:26 22° NNE 05:02:18 10° ENE visible
31 Jan 4.4 06:41:25 10° NNW 06:48:49 66° NE 06:56:53 10° SE visible
01 Feb 5.8 04:07:48 15° N 04:10:27 18° NNE 04:15:23 10° ENE visible
01 Feb 4.8 05:56:18 10° NNW 06:03:21 47° NE 06:11:03 10° ESE visible
02 Feb 6.0 03:24:00 15° N 03:24:22 15° NNE 03:28:21 10° NE visible
02 Feb 5.3 05:11:24 11° NNW 05:17:43 34° NE 05:24:50 10° ESE visible
03 Feb 6.3 02:40:13 12° NNE 02:40:13 12° NNE 02:41:31 10° NNE visible
03 Feb 5.6 04:27:38 15° NNW 04:31:56 25° NNE 04:38:18 10° E visible
03 Feb 4.2 06:16:32 10° NW 06:24:03 80° NE 06:32:11 10° SE visible
04 Feb 5.8 03:43:53 17° N 03:46:01 20° NNE 03:51:28 10° ENE visible
04 Feb 4.6 05:31:22 10° NNW 05:38:39 56° NE 05:46:34 10° SE visible
05 Feb 6.0 03:00:11 16° NNE 03:00:11 16° NNE 03:04:29 10° NE visible
05 Feb 5.0 04:47:36 16° NNW 04:53:06 40° NE 05:00:33 10° ESE visible
05 Feb 4.2 06:37:02 10° NW 06:44:26 58° WSW 06:52:21 10° SSE visible
06 Feb 6.4 02:16:32 12° NNE 02:16:32 12° NNE 02:17:30 10° NE visible
06 Feb 5.4 04:03:57 21° N 04:07:24 30° NE 04:14:12 10° E visible
06 Feb 4.0 05:51:41 10° NW 05:59:14 85° WSW 06:07:22 10° SSE visible
07 Feb 5.7 03:20:22 22° NNE 03:21:33 23° NNE 03:27:31 10° E visible
07 Feb 4.2 05:07:47 17° NNW 05:13:53 68° NE 05:21:58 10° SE visible
08 Feb 6.0 02:36:52 17° NE 02:36:52 17° NE 02:40:36 10° ENE visible
08 Feb 4.7 04:24:18 25° NNW 04:28:26 48° NE 04:36:10 10° ESE visible
08 Feb 4.3 06:12:19 10° NW 06:19:32 46° WSW 06:27:08 10° S visible
08 Feb 5.1 20:05:29 10° S 20:07:11 20° S 20:07:11 20° S visible
09 Feb 6.5 01:53:27 10° NE 01:53:27 10° NE 01:53:35 10° NE visible
09 Feb 5.2 03:40:53 31° N 03:42:49 35° NE 03:49:59 10° ESE visible
09 Feb 4.0 05:28:20 17° NW 05:34:22 70° WSW 05:42:26 10° SSE visible
09 Feb 4.5 19:21:17 10° SSE 19:24:42 25° SE 19:24:42 25° SE visible
09 Feb 5.5 21:10:44 10° SW 21:12:13 18° WSW 21:12:13 18° WSW visible
